CW9767 Weather Reports


Display with metric or nautical units.
time (UTC)temp
F
wind
direction
speed
MPH
gust
MPH
rain 1hr
in
rain 24hr
in
rain mn
in
humidity
%
barometer
mb
20260506210514 56 264 2.0 10.0 0.00 0.08 0.00 39 1012.2
20260506205512 56 261 4.0 10.0 0.00 0.08 0.00 39 1012.2
20260506204511 56 267 3.0 10.0 0.00 0.08 0.00 42 1012.2
20260506203510 56 293 3.0 12.0 0.00 0.09 0.00 42 1012.2
20260506202507 56 258 3.0 12.0 0.00 0.09 0.00 41 1011.9
20260506201507 56 310 3.0 8.0 0.00 0.10 0.00 38 1012.2
20260506200506 57 325 4.0 13.0 0.00 0.11 0.00 37 1012.2
20260506195504 57 255 2.0 13.0 0.00 0.11 0.00 39 1012.2
20260506194431 56 279 2.0 11.0 0.00 0.11 0.00 39 1012.2
20260506193430 56 278 4.0 11.0 0.00 0.11 0.00 40 1012.2
20260506192428 56 271 3.0 10.0 0.00 0.11 0.00 40 1012.2
20260506191427 55 270 3.0 9.0 0.00 0.11 0.00 40 1012.5
20260506190425 55 290 2.0 8.0 0.00 0.11 0.00 41 1012.5
20260506185424 55 293 2.0 6.0 0.00 0.11 0.00 41 1012.9
20260506184423 55 289 2.0 8.0 0.00 0.11 0.00 39 1012.5
20260506183422 55 266 2.0 11.0 0.00 0.11 0.00 41 1012.5
20260506182420 55 282 3.0 11.0 0.00 0.12 0.00 39 1012.5
20260506181418 55 330 3.0 9.0 0.00 0.13 0.00 40 1012.2
20260506180416 54 274 3.0 13.0 0.00 0.13 0.00 40 1012.5
20260506175415 54 297 2.0 15.0 0.00 0.13 0.00 42 1012.2
20260506174413 54 326 3.0 15.0 0.00 0.13 0.00 44 1012.2
20260506173411 54 318 4.0 12.0 0.00 0.13 0.00 41 1012.2
20260506172307 54 284 3.0 12.0 0.00 0.13 0.00 42 1012.5
20260506171304 54 323 5.0 12.0 0.00 0.13 0.00 42 1012.5
20260506170300 54 317 4.0 14.0 0.00 0.13 0.00 42 1012.5
20260506165227 54 306 3.0 14.0 0.00 0.13 0.00 42 1012.5
20260506164225 54 301 4.0 13.0 0.00 0.13 0.00 41 1012.9
20260506163224 55 330 7.0 13.0 0.00 0.13 0.00 40 1012.5
20260506162223 56 319 5.0 11.0 0.00 0.13 0.00 41 1012.5
20260506161222 56 316 3.0 11.0 0.00 0.13 0.00 44 1012.5
20260506160220 55 300 3.0 15.0 0.00 0.13 0.00 43 1012.5
20260506155218 54 327 8.0 16.0 0.00 0.13 0.00 45 1012.5
20260506154216 54 326 8.0 17.0 0.00 0.13 0.00 45 1012.5
20260506153143 53 331 8.0 17.0 0.00 0.13 0.00 46 1012.5
20260506152141 53 305 4.0 11.0 0.00 0.13 0.00 49 1012.2
20260506151140 53 328 4.0 13.0 0.00 0.13 0.00 46 1012.2
20260506150138 53 341 6.0 13.0 0.00 0.13 0.00 49 1012.2
20260506145105 52 318 3.0 12.0 0.00 0.13 0.00 50 1012.2
20260506144031 52 347 6.0 12.0 0.00 0.13 0.00 49 1011.9
20260506143030 52 1 0.0 11.0 0.00 0.13 0.00 47 1011.9
20260506141924 51 314 4.0 10.0 0.00 0.13 0.00 49 1011.9
20260506140923 51 332 5.0 10.0 0.00 0.13 0.00 51 1011.9
20260506135921 51 321 4.0 10.0 0.00 0.13 0.00 53 1011.5
20260506134919 51 316 6.0 10.0 0.00 0.13 0.00 53 1011.9
20260506133918 50 295 1.0 7.0 0.00 0.13 0.00 56 1011.5
20260506132843 50 292 2.0 11.0 0.00 0.13 0.00 59 1011.5
20260506131841 49 327 5.0 11.0 0.00 0.13 0.00 57 1011.5
20260506130840 49 304 3.0 12.0 0.00 0.13 0.00 59 1011.2
20260506125837 48 344 6.0 12.0 0.00 0.13 0.00 61 1011.2
20260506124804 48 341 4.0 9.0 0.00 0.13 0.00 66 1010.8
20260506123802 48 332 5.0 8.0 0.00 0.13 0.00 67 1010.8
20260506122801 47 331 3.0 7.0 0.00 0.13 0.00 70 1010.8
20260506121759 46 309 2.0 4.0 0.00 0.13 0.00 74 1010.8
20260506120758 45 328 0.0 0.0 0.00 0.13 0.00 76 1010.5
20260506115756 45 333 0.0 0.0 0.00 0.13 0.00 77 1010.2
20260506114754 45 329 0.0 0.0 0.00 0.13 0.00 77 1010.2
20260506113753 45 321 0.0 0.0 0.00 0.13 0.00 77 1009.8
20260506112749 45 290 0.0 0.0 0.00 0.13 0.00 76 1009.8
20260506111716 45 325 0.0 0.0 0.00 0.13 0.00 77 1009.8
20260506110714 45 317 0.0 3.0 0.00 0.13 0.00 77 1009.8
20260506105712 45 335 1.0 3.0 0.00 0.13 0.00 79 1009.5
20260506104712 45 330 2.0 3.0 0.00 0.13 0.00 79 1009.5
20260506103710 45 342 0.0 3.0 0.00 0.13 0.00 80 1009.1
20260506102709 45 291 0.0 3.0 0.00 0.13 0.00 82 1009.1
20260506101707 45 300 0.0 0.0 0.00 0.13 0.00 85 1009.1
20260506100633 45 300 0.0 0.0 0.00 0.13 0.00 90 1008.8
20260506095633 45 259 0.0 0.0 0.00 0.13 0.00 92 1008.8
20260506094631 45 259 0.0 0.0 0.00 0.13 0.00 93 1008.8
20260506093630 45 259 0.0 0.0 0.00 0.13 0.00 93 1008.8
20260506092628 45 259 0.0 0.0 0.00 0.13 0.00 93 1008.5
20260506091627 45 259 0.0 0.0 0.00 0.13 0.00 93 1008.5
20260506090626 45 259 0.0 0.0 0.00 0.13 0.00 93 1008.8
20260506085624 45 259 0.0 0.0 0.00 0.13 0.00 93 1008.8
20260506084623 45 259 0.0 0.0 0.00 0.13 0.00 93 1008.8
20260506083622 45 259 0.0 0.0 0.00 0.13 0.00 93 1008.5
20260506082620 45 259 0.0 0.0 0.00 0.13 0.00 93 1008.1
20260506081619 45 259 0.0 0.0 0.00 0.13 0.00 93 1008.1
20260506080617 45 259 0.0 0.0 0.00 0.13 0.00 93 1008.5
20260506072608 44 266 0.0 0.0 0.00 0.14 0.00 92 1007.8
20260506071606 44 266 0.0 1.0 0.00 0.14 0.00 92 1008.1
20260506070604 44 266 0.0 2.0 0.00 0.14 0.00 92 1008.5
20260506061525 45 271 1.0 1.0 0.00 0.14 0.00 93 1008.5
20260506060523 45 271 1.0 1.0 0.00 0.14 0.00 93 1008.8
20260506051413 44 301 0.0 0.0 0.00 0.14 0.00 93 1008.5
20260506050412 44 301 0.0 0.0 0.00 0.14 0.00 92 1008.5
20260506044336 45 301 0.0 1.0 0.00 0.14 0.00 92 1008.8
20260506043336 44 301 0.0 1.0 0.00 0.15 0.00 92 1008.8
20260506042332 44 301 0.0 0.0 0.00 0.15 0.00 92 1008.5
20260506041331 45 301 0.0 0.0 0.00 0.15 0.00 92 1008.5
20260506040329 45 301 0.0 0.0 0.00 0.15 0.15 92 1008.5
20260506035256 45 301 0.0 0.0 0.00 0.15 0.15 92 1008.1
20260506034254 45 301 0.0 1.0 0.00 0.15 0.15 92 1008.5
20260506033253 44 301 0.0 1.0 0.00 0.15 0.15 92 1008.5
20260506032251 44 301 0.0 0.0 0.00 0.15 0.15 92 1008.1
20260506031215 44 301 0.0 0.0 0.00 0.15 0.15 92 1008.1
20260506030213 44 301 0.0 0.0 0.00 0.15 0.15 92 1008.5
20260506025211 44 315 0.0 0.0 0.00 0.15 0.15 92 1008.1
20260506024209 44 315 0.0 0.0 0.01 0.15 0.15 91 1008.1
20260506023208 44 315 0.0 0.0 0.01 0.15 0.15 90 1008.1
20260506022207 44 315 0.0 0.0 0.01 0.15 0.15 90 1008.1
20260506021205 44 315 0.0 0.0 0.02 0.15 0.15 89 1008.1
20260506020203 44 315 0.0 0.0 0.03 0.15 0.15 88 1008.1
20260506015202 45 315 0.0 1.0 0.04 0.15 0.15 86 1008.1
20260506014159 45 315 0.0 6.0 0.03 0.14 0.14 85 1008.1
20260506013157 46 345 2.0 8.0 0.03 0.14 0.14 83 1008.1
20260506012155 46 324 3.0 8.0 0.03 0.14 0.14 80 1008.1
20260506011152 47 304 2.0 5.0 0.02 0.13 0.13 77 1008.1
20260506010119 48 302 2.0 7.0 0.01 0.12 0.12 75 1007.8
20260506005044 48 332 3.0 7.0 0.00 0.11 0.11 76 1007.5
20260506004042 48 335 0.0 0.0 0.01 0.11 0.11 81 1007.5
20260506003040 48 315 0.0 0.0 0.01 0.11 0.11 82 1007.5
20260506002038 48 282 0.0 0.0 0.01 0.11 0.11 84 1007.5
20260506001036 49 276 0.0 0.0 0.01 0.11 0.11 86 1007.5
20260506000036 49 255 0.0 0.0 0.01 0.11 0.11 90 1007.5
20260505235033 50 257 0.0 0.0 0.01 0.11 0.11 91 1007.5
20260505234031 50 257 0.0 0.0 0.00 0.10 0.10 91 1007.5
20260505233030 50 257 0.0 0.0 0.01 0.10 0.10 91 1007.5
20260505231957 50 257 0.0 0.0 0.02 0.10 0.10 91 1007.1
20260505230956 50 244 0.0 0.0 0.02 0.10 0.10 90 1007.1
20260505225955 50 238 0.0 0.0 0.03 0.10 0.10 90 1007.5
20260505224953 50 252 0.0 0.0 0.03 0.10 0.10 89 1007.1
20260505223951 50 238 0.0 0.0 0.03 0.10 0.10 88 1007.1
20260505222950 51 253 0.0 0.0 0.02 0.09 0.09 87 1007.1
20260505221948 51 254 0.0 1.0 0.01 0.08 0.08 85 1006.8
20260505220946 51 259 1.0 1.0 0.01 0.08 0.08 85 1006.8
20260505215944 51 266 0.0 0.0 0.00 0.07 0.07 85 1006.8
20260505214912 51 266 0.0 0.0 0.00 0.07 0.07 84 1006.8
20260505213910 51 253 0.0 0.0 0.00 0.07 0.07 84 1006.8
20260505212906 51 253 0.0 0.0 0.01 0.07 0.07 86 1006.8
20260505211904 51 253 0.0 0.0 0.02 0.07 0.07 85 1006.8